User: anonymous   Login
Location: Unspecified
(0.0000°N, 0.0000°E)
Time: 10:40:35
(UTC+00:00)
Language:

OBJECT K - Orbit

View from above orbital plane
View from above orbital plane
View from above satellite
View from above satellite

Ground track
Ground track

The orbit data is extracted from the following two-line orbital elements,

1 42834U 17042K   19112.14994935  .00000049  00000-0  10367-4 0  9997
2 42834  97.5716   7.6531 0011962 252.0228 107.9687 14.91153698 96370
Epoch (UTC): 22 April 2019 03:35:55
Eccentricity: 0.0011962
inclination: 97.5716°
perigee height: 586 km
apogee height: 602 km
right ascension of ascending node: 7.6531°
argument of perigee: 252.0228°
revolutions per day: 14.91153698
mean anomaly at epoch: 107.9687°
orbit number at epoch: 9637

The dashed part of the orbit path shows where the satellite is in the earth's shadow,  

DLR